Regional Weather Roundup
Issued by NWS

Home | Current Version | Previous Version | Graphics & Text | Print | Product List | Glossary On
Versions: 1 2 3 4 5 6 7 8 9 10 11 12 13 14 15 16 17 18 19 20 21 22 23 24 25 26 27 28 29 30 31 32 33 34 35 36 37 38 39 40 41 42 43 44 45 46 47 48 49 50
075
ASUS43 KFSD 110702
RWRSD

WEATHER ROUNDUP FOR SOUTH DAKOTA
NATIONAL WEATHER SERVICE SIOUX FALLS SD
100 AM CST THU FEB 11 2016

NOTE: "FAIR" INDICATES FEW OR NO CLOUDS BELOW 12,000 FEET WITH NO
SIGNIFICANT WEATHER AND/OR OBSTRUCTIONS TO VISIBILITY.


SDZ001>005-009-010-012>017-110800-
NORTHWEST AND NORTH CENTRAL SOUTH DAKOTA

CITY           SKY/WX    TMP DP  RH WIND       PRES   REMARKS
BUFFALO          N/A     32  28  85 S6        30.03F WCI  26
FAITH            N/A     28  23  81 S10       30.13F WCI  19
MOBRIDGE       CLOUDY    18  14  84 E9        30.17R WCI   7
$$

SDZ012>016-024>037-041>051-057-063-072>074-110800-
SOUTHWEST AND SOUTH CENTRAL SOUTH DAKOTA

CITY           SKY/WX    TMP DP  RH WIND       PRES   REMARKS
RAPID CTY ARPT CLOUDY    29  27  92 S5        30.13S WCI  24
PIERRE         CLOUDY    21  19  92 SE3       30.18F
CUSTER         CLOUDY    34  21  59 W12G22    30.08S WCI  25
ELLSWORTH AFB  CLOUDY    30  29  94 SE9       30.10F WCI  22
PHILIP         CLOUDY    29  25  85 SW3       30.18S
PINE RIDGE     CLEAR     26  23  88 E6        30.13S WCI  19
WINNER         CLOUDY    27  21  78 NW6       30.19R WCI  20
$$

SDZ004>011-016>023-039-040-110800-
NORTHEAST SOUTH DAKOTA

CITY           SKY/WX    TMP DP  RH WIND       PRES   REMARKS
ABERDEEN       CLOUDY    13   7  77 E6        30.24F WCI   4
WATERTOWN      CLOUDY    11   4  73 S3        30.20F
BROOKINGS      CLOUDY    11   6  81 E3        30.22S
SISSETON         N/A      5   2  87 NW5       30.26F WCI  -4
$$

SDZ017-020-022-023-036>040-048>070-110800-
SOUTHEAST SOUTH DAKOTA

CITY           SKY/WX    TMP DP  RH WIND       PRES   REMARKS
SIOUX FALLS    CLOUDY    13   6  74 NE6       30.25R WCI   4
HURON          CLOUDY    16  10  77 E5        30.25S WCI   9
CHAMBERLAIN    CLOUDY    22  19  89 CALM      30.21F
MITCHELL       CLOUDY    19  12  74 E5        30.26R WCI  12
YANKTON        MOCLDY    18  10  73 NE7       30.26R WCI   8
$$

ABBREVIATIONS USED IN REMARKS
   TC - TEMPERATURE IN CELSIUS
  WCI - WIND CHILL INDEX
   HX - HEAT INDEX
  VSB - VISIBILITY





USA.gov is the U.S. government's official web portal to all federal, state and local government web resources and services.